| time (UTC) | temp F | wind direction | speed knots | gust knots | rain 1hr in | rain 24hr in | rain mn in | humidity % | barometer mb |
| 20260902224558 | 67 | 0 | 0.0 | 1.7 | 0.00 | 0.01 | 0.01 | 84 | 1021.6 |
| 20260902223114 | 67 | 0 | 0.0 | 1.7 | 0.00 | 0.01 | 0.01 | 84 | 1021.7 |
| 20260902221553 | 67 | 181 | 0.0 | 1.7 | 0.00 | 0.01 | 0.01 | 84 | 1021.9 |
| 20260902220101 | 68 | 181 | 0.0 | 1.7 | 0.00 | 0.01 | 0.01 | 83 | 1021.8 |
| 20260902214553 | 68 | 0 | 0.0 | 1.7 | 0.00 | 0.01 | 0.01 | 82 | 1021.8 |
| 20260902213051 | 69 | 0 | 0.0 | 1.7 | 0.00 | 0.01 | 0.01 | 82 | 1021.8 |
| 20260902211544 | 69 | 181 | 0.0 | 1.7 | 0.00 | 0.01 | 0.01 | 82 | 1021.5 |
| 20260902210053 | 69 | 182 | 0.9 | 2.6 | 0.00 | 0.01 | 0.01 | 81 | 1021.8 |
| 20260902204630 | 70 | 0 | 0.9 | 2.6 | 0.00 | 0.01 | 0.01 | 81 | 1021.8 |
| 20260902203051 | 69 | 182 | 0.0 | 1.7 | 0.00 | 0.01 | 0.01 | 81 | 1021.9 |
| 20260902201548 | 69 | 182 | 0.0 | 1.7 | 0.00 | 0.01 | 0.01 | 81 | 1022.3 |
| 20260902200058 | 70 | 182 | 0.0 | 2.6 | 0.00 | 0.01 | 0.01 | 81 | 1022.3 |
| 20260902194554 | 69 | 174 | 0.0 | 1.7 | 0.00 | 0.01 | 0.01 | 81 | 1022.3 |
| 20260902193050 | 69 | 174 | 0.0 | 1.7 | 0.00 | 0.01 | 0.01 | 81 | 1022.7 |
| 20260902191548 | 69 | 174 | 0.0 | 2.6 | 0.00 | 0.01 | 0.01 | 80 | 1022.8 |
| 20260902190058 | 69 | 261 | 0.9 | 3.5 | 0.00 | 0.01 | 0.01 | 81 | 1022.5 |
| 20260902184555 | 69 | 0 | 0.0 | 2.6 | 0.00 | 0.01 | 0.01 | 81 | 1022.5 |
| 20260902183105 | 69 | 205 | 0.0 | 1.7 | 0.00 | 0.01 | 0.01 | 82 | 1022.3 |
| 20260902181554 | 68 | 205 | 0.0 | 1.7 | 0.00 | 0.01 | 0.01 | 83 | 1022.6 |
| 20260902180048 | 68 | 205 | 0.0 | 1.7 | 0.00 | 0.01 | 0.01 | 83 | 1022.8 |
| 20260902174552 | 68 | 0 | 0.0 | 1.7 | 0.00 | 0.02 | 0.01 | 83 | 1022.8 |
| 20260902173104 | 68 | 205 | 0.0 | 1.7 | 0.00 | 0.02 | 0.01 | 82 | 1022.9 |
| 20260902171555 | 69 | 175 | 0.0 | 1.7 | 0.00 | 0.02 | 0.01 | 83 | 1022.8 |
| 20260902170053 | 69 | 178 | 0.0 | 1.7 | 0.00 | 0.02 | 0.01 | 83 | 1022.9 |
| 20260902164603 | 69 | 0 | 0.0 | 1.7 | 0.00 | 0.02 | 0.01 | 83 | 1022.8 |
| 20260902163054 | 69 | 0 | 0.0 | 1.7 | 0.00 | 0.02 | 0.01 | 83 | 1023.0 |
| 20260902161553 | 69 | 0 | 0.0 | 1.7 | 0.00 | 0.02 | 0.01 | 83 | 1023.1 |
| 20260902160048 | 69 | 178 | 0.0 | 1.7 | 0.00 | 0.02 | 0.01 | 84 | 1023.2 |
| 20260902154553 | 68 | 178 | 0.0 | 1.7 | 0.00 | 0.03 | 0.01 | 84 | 1023.4 |
| 20260902153107 | 68 | 177 | 0.0 | 1.7 | 0.00 | 0.03 | 0.01 | 85 | 1023.4 |
| 20260902151555 | 68 | 177 | 0.0 | 1.7 | 0.00 | 0.03 | 0.01 | 85 | 1023.6 |
| 20260902150052 | 67 | 177 | 0.0 | 1.7 | 0.00 | 0.03 | 0.01 | 85 | 1023.6 |
| 20260902144600 | 67 | 0 | 0.0 | 2.6 | 0.01 | 0.07 | 0.01 | 85 | 1023.2 |
| 20260902143059 | 67 | 177 | 0.0 | 1.7 | 0.01 | 0.07 | 0.01 | 85 | 1023.0 |
| 20260902141557 | 66 | 0 | 0.0 | 1.7 | 0.01 | 0.07 | 0.01 | 83 | 1023.0 |
| 20260902140054 | 66 | 177 | 0.0 | 0.9 | 0.01 | 0.07 | 0.01 | 82 | 1022.8 |
| 20260902134556 | 65 | 0 | 0.0 | 1.7 | 0.00 | 0.23 | 0.00 | 80 | 1022.8 |
| 20260902133050 | 65 | 177 | 0.0 | 0.9 | 0.00 | 0.23 | 0.00 | 79 | 1022.8 |
| 20260902131555 | 64 | 0 | 0.0 | 0.9 | 0.00 | 0.23 | 0.00 | 79 | 1022.8 |
| 20260902130058 | 64 | 0 | 0.0 | 0.9 | 0.00 | 0.23 | 0.00 | 78 | 1022.9 |
| 20260902124550 | 64 | 177 | 0.0 | 0.9 | 0.00 | 0.35 | 0.00 | 78 | 1023.0 |
| 20260902123057 | 63 | 0 | 0.0 | 0.9 | 0.00 | 0.35 | 0.00 | 78 | 1023.0 |
| 20260902121554 | 63 | 0 | 0.0 | 0.9 | 0.00 | 0.35 | 0.00 | 78 | 1023.1 |
| 20260902120052 | 63 | 0 | 0.0 | 0.9 | 0.00 | 0.35 | 0.00 | 78 | 1023.1 |
| 20260902114550 | 63 | 0 | 0.0 | 0.9 | 0.00 | 0.35 | 0.00 | 78 | 1023.1 |
| 20260902113049 | 63 | 0 | 0.0 | 0.9 | 0.00 | 0.35 | 0.00 | 78 | 1023.0 |
| 20260902111546 | 63 | 0 | 0.0 | 1.7 | 0.00 | 0.35 | 0.00 | 78 | 1022.8 |
| 20260902110059 | 63 | 0 | 0.0 | 0.9 | 0.00 | 0.35 | 0.00 | 78 | 1022.7 |
| 20260902104602 | 62 | 0 | 0.0 | 0.9 | 0.00 | 0.35 | 0.00 | 78 | 1022.3 |
| 20260902103105 | 62 | 0 | 0.0 | 0.9 | 0.00 | 0.35 | 0.00 | 78 | 1022.2 |
| 20260902101603 | 62 | 0 | 0.0 | 0.9 | 0.00 | 0.35 | 0.00 | 78 | 1022.3 |
| 20260902100059 | 62 | 0 | 0.0 | 0.0 | 0.00 | 0.35 | 0.00 | 78 | 1022.0 |
| 20260902094549 | 62 | 0 | 0.0 | 0.0 | 0.00 | 0.35 | 0.00 | 78 | 1022.0 |
| 20260902093053 | 62 | 0 | 0.0 | 0.0 | 0.00 | 0.35 | 0.00 | 79 | 1021.9 |
| 20260902091603 | 62 | 0 | 0.0 | 0.0 | 0.00 | 0.35 | 0.00 | 79 | 1021.6 |
| 20260902090100 | 62 | 0 | 0.0 | 0.0 | 0.00 | 0.35 | 0.00 | 79 | 1021.7 |
| 20260902084557 | 62 | 0 | 0.0 | 0.0 | 0.00 | 0.35 | 0.00 | 78 | 1021.3 |
| 20260902083056 | 62 | 0 | 0.0 | 0.0 | 0.00 | 0.35 | 0.00 | 79 | 1021.6 |
| 20260902081552 | 62 | 0 | 0.0 | 0.0 | 0.00 | 0.35 | 0.00 | 79 | 1022.0 |
| 20260902080052 | 62 | 0 | 0.0 | 0.0 | 0.00 | 0.35 | 0.00 | 79 | 1021.9 |
| 20260902074559 | 62 | 0 | 0.0 | 0.0 | 0.00 | 0.35 | 0.00 | 79 | 1021.9 |
| 20260902073054 | 62 | 0 | 0.0 | 0.0 | 0.00 | 0.35 | 0.00 | 79 | 1021.8 |
| 20260902071555 | 62 | 0 | 0.0 | 0.0 | 0.00 | 0.35 | 0.00 | 79 | 1021.7 |
| 20260902070054 | 62 | 0 | 0.0 | 0.0 | 0.00 | 0.35 | 0.00 | 79 | 1021.4 |
| 20260902064604 | 62 | 0 | 0.0 | 0.0 | 0.00 | 0.35 | 0.00 | 79 | 1021.6 |
| 20260902063109 | 62 | 0 | 0.0 | 0.0 | 0.00 | 0.35 | 0.00 | 79 | 1021.5 |
| 20260902061616 | 62 | 0 | 0.0 | 0.0 | 0.00 | 0.35 | 0.00 | 79 | 1021.6 |
| 20260902060054 | 62 | 0 | 0.0 | 0.0 | 0.00 | 0.35 | 0.00 | 79 | 1021.5 |
| 20260902054554 | 62 | 0 | 0.0 | 0.0 | 0.00 | 0.35 | 0.00 | 79 | 1021.5 |
| 20260902053105 | 62 | 0 | 0.0 | 0.0 | 0.00 | 0.35 | 0.00 | 79 | 1021.5 |
| 20260902051615 | 61 | 0 | 0.0 | 0.0 | 0.00 | 0.35 | 0.00 | 79 | 1021.3 |
| 20260902050054 | 62 | 0 | 0.0 | 0.0 | 0.00 | 0.35 | 0.00 | 79 | 1021.1 |
| 20260902044631 | 62 | 0 | 0.0 | 0.0 | 0.00 | 0.35 | 0.00 | 79 | 1020.8 |
| 20260902043102 | 61 | 0 | 0.0 | 0.0 | 0.00 | 0.35 | 0.00 | 80 | 1020.7 |
| 20260902041601 | 62 | 0 | 0.0 | 0.0 | 0.00 | 0.35 | 0.00 | 80 | 1020.6 |
| 20260902040055 | 62 | 0 | 0.0 | 0.0 | 0.00 | 0.35 | 0.00 | 80 | 1020.4 |
| 20260902034558 | 62 | 0 | 0.0 | 0.0 | 0.00 | 0.35 | 0.35 | 80 | 1020.1 |
| 20260902033053 | 62 | 0 | 0.0 | 0.0 | 0.00 | 0.35 | 0.35 | 79 | 1020.1 |
| 20260902031558 | 62 | 0 | 0.0 | 0.0 | 0.00 | 0.35 | 0.35 | 80 | 1020.1 |
| 20260902030058 | 62 | 0 | 0.0 | 0.0 | 0.00 | 0.35 | 0.35 | 80 | 1020.2 |
| 20260902024559 | 62 | 0 | 0.0 | 0.0 | 0.00 | 0.35 | 0.35 | 80 | 1020.1 |
| 20260902023050 | 62 | 0 | 0.0 | 0.0 | 0.00 | 0.35 | 0.35 | 80 | 1020.1 |
| 20260902021551 | 62 | 0 | 0.0 | 0.0 | 0.00 | 0.35 | 0.35 | 80 | 1020.3 |
| 20260902020047 | 62 | 0 | 0.0 | 0.0 | 0.00 | 0.35 | 0.35 | 80 | 1020.3 |
| 20260902014554 | 63 | 0 | 0.0 | 0.9 | 0.00 | 0.35 | 0.35 | 80 | 1020.2 |
| 20260902013101 | 63 | 0 | 0.0 | 0.0 | 0.00 | 0.35 | 0.35 | 80 | 1020.2 |
| 20260902011549 | 63 | 0 | 0.0 | 0.0 | 0.00 | 0.35 | 0.35 | 80 | 1020.2 |
| 20260902010047 | 63 | 0 | 0.0 | 0.0 | 0.00 | 0.35 | 0.35 | 80 | 1020.0 |
| 20260902004555 | 63 | 0 | 0.0 | 0.0 | 0.00 | 0.35 | 0.35 | 80 | 1020.0 |
| 20260902003054 | 63 | 0 | 0.0 | 0.9 | 0.00 | 0.35 | 0.35 | 81 | 1019.9 |
| 20260902001552 | 63 | 0 | 0.0 | 0.0 | 0.00 | 0.35 | 0.35 | 81 | 1019.6 |
| 20260902000052 | 63 | 0 | 0.0 | 0.0 | 0.00 | 0.35 | 0.35 | 81 | 1019.5 |
| 20260901234609 | 63 | 0 | 0.0 | 0.0 | 0.00 | 0.35 | 0.35 | 81 | 1019.6 |
| 20260901233104 | 64 | 0 | 0.0 | 0.0 | 0.00 | 0.35 | 0.35 | 81 | 1019.7 |
| 20260901231615 | 64 | 0 | 0.0 | 0.0 | 0.00 | 0.35 | 0.35 | 81 | 1019.5 |
| 20260901230109 | 64 | 0 | 0.0 | 0.0 | 0.00 | 0.35 | 0.35 | 82 | 1019.7 |